FW6720 Weather Reports


Display with metric or nautical units.
time (UTC)temp
F
wind
direction
speed
MPH
gust
MPH
rain 1hr
in
rain 24hr
in
rain mn
in
humidity
%
barometer
mb
20260504050703 60 35 0.0 0.0 0.00 0.00 0.00 77 1011.3
20260504050200 60 35 0.0 0.0 0.00 0.00 0.00 76 1011.2
20260504045657 60 35 0.0 0.0 0.00 0.00 0.00 76 1010.9
20260504045152 60 35 0.0 0.0 0.00 0.00 0.00 76 1011.0
20260504044650 60 35 0.0 0.0 0.00 0.00 0.00 76 1011.0
20260504044146 61 35 0.0 0.0 0.00 0.00 0.00 76 1011.0
20260504043643 61 35 0.0 0.0 0.00 0.00 0.00 76 1010.7
20260504043141 61 35 0.0 0.0 0.00 0.00 0.00 75 1010.9
20260504042638 61 35 0.0 0.0 0.00 0.00 0.00 75 1010.9
20260504042134 62 35 0.0 0.0 0.00 0.00 0.00 74 1010.8
20260504041630 62 35 0.0 0.0 0.00 0.00 0.00 74 1010.9
20260504041127 62 35 0.0 0.0 0.00 0.00 0.00 74 1010.7
20260504040624 62 35 0.0 0.0 0.00 0.00 0.00 74 1010.6
20260504040121 63 35 0.0 0.0 0.00 0.00 0.00 74 1010.6
20260504035618 63 35 0.0 0.0 0.00 0.00 0.00 73 1010.3
20260504035114 64 35 0.0 0.0 0.00 0.00 0.00 73 1010.4
20260504034612 64 35 0.0 0.0 0.00 0.00 0.00 71 1010.5
20260504034108 64 35 0.0 0.0 0.00 0.00 0.00 70 1010.3
20260504033607 64 35 0.0 0.0 0.00 0.00 0.00 70 1010.2
20260504033104 65 35 0.0 0.0 0.00 0.00 0.00 70 1010.3
20260504032600 65 35 0.0 0.0 0.00 0.00 0.00 70 1010.3
20260504032057 66 34 0.0 0.0 0.00 0.00 0.00 68 1010.0
20260504031554 66 34 0.0 0.0 0.00 0.00 0.00 66 1010.0
20260504031050 66 34 0.0 0.0 0.00 0.00 0.00 67 1010.1
20260504030548 67 33 0.0 0.0 0.00 0.00 0.00 67 1010.0
20260504030044 67 33 0.0 0.0 0.00 0.00 0.00 67 1010.1
20260504025541 68 33 0.0 0.0 0.00 0.00 0.00 66 1009.9
20260504025038 68 33 0.0 0.0 0.00 0.00 0.00 65 1009.7
20260504024535 69 33 0.0 0.0 0.00 0.00 0.00 66 1009.8
20260504024032 69 33 0.0 0.0 0.00 0.00 0.00 63 1009.7
20260504023529 69 33 0.0 0.0 0.00 0.00 0.00 62 1009.8
20260504023024 70 33 0.0 0.0 0.00 0.00 0.00 62 1009.6
20260504022520 71 33 0.0 0.0 0.00 0.00 0.00 61 1009.7
20260504022017 71 33 0.0 0.0 0.00 0.00 0.00 60 1009.7
20260504021515 72 33 0.0 0.0 0.00 0.00 0.00 57 1009.6
20260504021012 72 33 0.0 0.0 0.00 0.00 0.00 56 1009.6
20260504020508 73 33 0.0 0.0 0.00 0.00 0.00 54 1009.8
20260504020005 73 33 0.0 0.0 0.00 0.00 0.00 53 1009.5
20260504015501 74 33 0.0 0.0 0.00 0.00 0.00 51 1009.7
20260504014957 74 33 0.0 0.0 0.00 0.00 0.00 50 1009.7
20260504014453 75 33 0.0 0.0 0.00 0.00 0.00 52 1009.7
20260504013950 76 33 0.0 0.0 0.00 0.00 0.00 52 1009.8
20260504013449 76 33 0.0 0.0 0.00 0.00 0.00 52 1009.7
20260504012944 77 33 0.0 0.0 0.00 0.00 0.00 50 1009.9
20260504012443 77 33 0.0 0.0 0.00 0.00 0.00 48 1009.7
20260504011940 78 34 0.0 0.0 0.00 0.00 0.00 46 1009.8
20260504011436 78 33 0.0 0.0 0.00 0.00 0.00 46 1009.8
20260504010932 80 33 0.0 0.0 0.00 0.00 0.00 43 1009.9
20260504010428 80 33 0.0 0.0 0.00 0.00 0.00 43 1009.9
20260504005925 80 33 0.0 0.0 0.00 0.00 0.00 44 1009.8
20260504005421 81 34 0.0 0.0 0.00 0.00 0.00 43 1010.1
20260504004919 81 34 0.0 0.0 0.00 0.00 0.00 41 1010.2
20260504004417 82 34 0.0 0.0 0.00 0.00 0.00 39 1009.9
20260504003913 83 34 0.0 0.0 0.00 0.00 0.00 41 1010.1
20260504003410 84 34 0.0 0.0 0.00 0.00 0.00 36 1010.0
20260504002906 85 34 0.0 0.0 0.00 0.00 0.00 37 1010.2
20260504002403 85 34 0.0 0.0 0.00 0.00 0.00 32 1010.2
20260504001901 87 34 0.0 0.0 0.00 0.00 0.00 24 1010.1
20260504001359 87 34 0.0 0.0 0.00 0.00 0.00 27 1010.1
20260504000854 86 35 0.0 0.0 0.00 0.00 0.00 24 1010.2
20260504000354 86 35 0.0 0.0 0.00 0.00 0.00 26 1010.2
20260503235849 85 36 0.0 0.0 0.00 0.00 0.00 32 1010.3
20260503235347 87 40 0.0 0.0 0.00 0.00 0.00 34 1010.4
20260503234844 87 41 0.0 0.0 0.00 0.00 0.00 24 1010.3
20260503234342 87 41 1.0 1.0 0.00 0.00 0.00 23 1010.5
20260503233839 88 41 0.0 0.0 0.00 0.00 0.00 28 1010.5
20260503233335 88 42 0.0 0.0 0.00 0.00 0.00 28 1010.5
20260503232832 88 42 1.0 1.0 0.00 0.00 0.00 28 1010.6
20260503232329 87 42 0.0 0.0 0.00 0.00 0.00 26 1010.6
20260503231827 88 42 0.0 0.0 0.00 0.00 0.00 25 1010.8
20260503231324 88 42 0.0 1.0 0.00 0.00 0.00 24 1010.8
20260503230820 88 42 1.0 1.0 0.00 0.00 0.00 29 1010.9
20260503230317 90 42 1.0 1.0 0.00 0.00 0.00 23 1010.9
20260503225815 89 42 0.0 0.0 0.00 0.00 0.00 24 1011.0
20260503225310 88 42 0.0 0.0 0.00 0.00 0.00 26 1011.1
20260503224807 88 42 0.0 0.0 0.00 0.00 0.00 24 1011.2
20260503224304 89 42 0.0 0.0 0.00 0.00 0.00 27 1011.2
20260503223802 88 42 0.0 0.0 0.00 0.00 0.00 26 1011.3
20260503223259 88 42 0.0 0.0 0.00 0.00 0.00 25 1011.6
20260503222755 87 42 0.0 0.0 0.00 0.00 0.00 25 1011.4
20260503222254 88 42 0.0 0.0 0.00 0.00 0.00 29 1011.6
20260503221751 88 42 0.0 1.0 0.00 0.00 0.00 25 1011.7
20260503221249 89 41 0.0 0.0 0.00 0.00 0.00 26 1011.7
20260503220745 88 42 0.0 0.0 0.00 0.00 0.00 25 1011.7
20260503220242 88 42 0.0 1.0 0.00 0.00 0.00 27 1011.8
20260503215739 89 41 0.0 0.0 0.00 0.00 0.00 29 1011.8
20260503215236 90 41 0.0 0.0 0.00 0.00 0.00 25 1011.8
20260503214734 89 41 0.0 0.0 0.00 0.00 0.00 26 1012.1
20260503214231 89 41 0.0 0.0 0.00 0.00 0.00 28 1012.2
20260503213729 90 41 0.0 0.0 0.00 0.00 0.00 26 1012.1
20260503213226 90 41 0.0 0.0 0.00 0.00 0.00 27 1012.0
20260503212723 89 41 0.0 0.0 0.00 0.00 0.00 30 1012.0
20260503212220 89 41 0.0 0.0 0.00 0.00 0.00 25 1012.3
20260503211718 89 41 2.0 2.0 0.00 0.00 0.00 25 1012.3
20260503211213 89 42 0.0 0.0 0.00 0.00 0.00 26 1012.1
20260503210709 88 40 0.0 0.0 0.00 0.00 0.00 28 1012.2
20260503210207 88 41 1.0 2.0 0.00 0.00 0.00 27 1012.4
20260503205702 88 40 0.0 0.0 0.00 0.00 0.00 26 1012.4
20260503205158 87 41 0.0 0.0 0.00 0.00 0.00 25 1012.4
20260503204655 88 41 0.0 0.0 0.00 0.00 0.00 27 1012.6
20260503204153 89 41 0.0 0.0 0.00 0.00 0.00 26 1012.7
20260503203649 87 41 0.0 0.0 0.00 0.00 0.00 30 1012.8
20260503203147 87 41 0.0 0.0 0.00 0.00 0.00 30 1012.8
20260503202644 87 42 0.0 0.0 0.00 0.00 0.00 27 1012.7
20260503202142 87 41 0.0 0.0 0.00 0.00 0.00 30 1012.9
20260503201640 86 42 0.0 0.0 0.00 0.00 0.00 26 1012.9
20260503201137 86 42 1.0 2.0 0.00 0.00 0.00 26 1013.0
20260503200633 87 41 0.0 0.0 0.00 0.00 0.00 24 1012.9
20260503200130 87 40 0.0 0.0 0.00 0.00 0.00 28 1013.0
20260503195627 87 40 0.0 0.0 0.00 0.00 0.00 26 1013.2
20260503195124 87 40 0.0 0.0 0.00 0.00 0.00 28 1013.2
20260503194621 87 39 3.0 5.0 0.00 0.00 0.00 26 1013.3
20260503194116 87 40 0.0 0.0 0.00 0.00 0.00 30 1013.2
20260503193613 87 40 1.0 1.0 0.00 0.00 0.00 30 1013.4
20260503193108 86 40 0.0 0.0 0.00 0.00 0.00 30 1013.5
20260503192604 86 39 0.0 0.0 0.00 0.00 0.00 28 1013.4
20260503192100 86 39 0.0 0.0 0.00 0.00 0.00 32 1013.6
20260503191557 86 40 0.0 0.0 0.00 0.00 0.00 28 1013.6
20260503191054 85 40 0.0 0.0 0.00 0.00 0.00 32 1013.4
20260503190551 86 39 0.0 0.0 0.00 0.00 0.00 32 1013.5
20260503190048 85 40 0.0 0.0 0.00 0.00 0.00 30 1013.4
20260503185544 85 40 1.0 1.0 0.00 0.00 0.00 30 1013.6
20260503185044 85 39 0.0 0.0 0.00 0.00 0.00 32 1013.8
20260503184540 86 39 0.0 0.0 0.00 0.00 0.00 32 1014.0
20260503184038 86 39 0.0 0.0 0.00 0.00 0.00 36 1013.9
20260503183534 86 39 0.0 0.0 0.00 0.00 0.00 32 1013.8
20260503183031 84 39 0.0 0.0 0.00 0.00 0.00 34 1013.8
20260503182530 84 39 0.0 0.0 0.00 0.00 0.00 40 1014.0
20260503182027 84 39 0.0 0.0 0.00 0.00 0.00 40 1013.7
20260503181524 83 39 0.0 0.0 0.00 0.00 0.00 45 1014.1
20260503181020 82 39 0.0 0.0 0.00 0.00 0.00 44 1014.0
20260503180518 81 39 0.0 0.0 0.00 0.00 0.00 40 1013.9
20260503180015 81 39 0.0 0.0 0.00 0.00 0.00 46 1014.0
20260503175512 82 39 0.0 0.0 0.00 0.00 0.00 45 1013.8
20260503175009 80 39 0.0 0.0 0.00 0.00 0.00 46 1013.9
20260503174506 79 39 0.0 0.0 0.00 0.00 0.00 51 1014.2
20260503174002 80 39 0.0 0.0 0.00 0.00 0.00 50 1014.1
20260503173457 78 38 0.0 0.0 0.00 0.00 0.00 51 1014.1
20260503172954 77 39 0.0 0.0 0.00 0.00 0.00 56 1014.0
20260503172452 77 38 0.0 0.0 0.00 0.00 0.00 53 1014.1
20260503171948 76 38 0.0 0.0 0.00 0.00 0.00 55 1014.2
20260503171445 75 38 0.0 0.0 0.00 0.00 0.00 56 1014.2
20260503170943 75 38 0.0 0.0 0.00 0.00 0.00 54 1014.3
20260503170438 74 38 0.0 0.0 0.00 0.00 0.00 60 1014.4
20260503150831 51 33 0.0 0.0 0.00 0.00 0.00 99 1014.9
20260503150327 50 33 0.0 0.0 0.00 0.00 0.00 98 1015.0
20260503140251 48 33 0.0 0.0 0.00 0.00 0.00 98 1014.7
20260503131221 48 33 0.0 0.0 0.00 0.00 0.00 98 1014.7
20260503130719 48 33 0.0 0.0 0.00 0.00 0.00 98 1014.9
20260503130216 48 33 0.0 0.0 0.00 0.00 0.00 98 1014.5
20260503120141 49 34 0.0 0.0 0.00 0.00 0.00 98 1015.0
20260503110609 49 34 0.0 0.0 0.00 0.00 0.00 98 1014.8
20260503110106 49 34 0.0 0.0 0.00 0.00 0.00 98 1015.2
20260503090450 51 35 0.0 0.0 0.00 0.00 0.00 96 1015.2
20260503081416 52 35 0.0 0.0 0.00 0.00 0.00 95 1015.1
20260503080913 52 35 0.0 0.0 0.00 0.00 0.00 94 1015.4
20260503080410 52 35 0.0 0.0 0.00 0.00 0.00 94 1015.3
20260503072846 53 35 0.0 0.0 0.00 0.00 0.00 93 1015.5
20260503072343 53 35 0.0 0.0 0.00 0.00 0.00 93 1015.6
20260503071840 53 35 0.0 0.0 0.00 0.00 0.00 93 1015.5
20260503071337 53 35 0.0 0.0 0.00 0.00 0.00 93 1015.5
20260503070833 53 35 0.0 0.0 0.00 0.00 0.00 92 1015.4
20260503070332 53 35 0.0 0.0 0.00 0.00 0.00 91 1015.2
20260503060250 55 35 0.0 0.0 0.00 0.00 0.00 87 1015.5
20260503054737 56 35 0.0 0.0 0.00 0.00 0.00 87 1015.8
20260503054234 56 35 0.0 0.0 0.00 0.00 0.00 86 1015.7
20260503053732 56 35 0.0 0.0 0.00 0.00 0.00 87 1015.8
20260503053231 56 35 0.0 0.0 0.00 0.00 0.00 87 1015.5
20260503052726 56 35 0.0 0.0 0.00 0.00 0.00 87 1015.6
20260503052223 56 35 0.0 0.0 0.00 0.00 0.00 86 1015.7
20260503051718 57 35 0.0 0.0 0.00 0.00 0.00 86 1015.8
20260503051217 57 35 0.0 0.0 0.00 0.00 0.00 86 1015.7